Location: Salisbury
(35.6710°N, 80.4740°W)
Time: 10:59:44
(UTC-05:00)

ISS - Visible Passes

Search period start: 24 February 2018 00:00
Search period end: 06 March 2018 00:00
Orbit: 402 x 407 km, 51.6° (Epoch: 25 February)

Date Brightness Start Highest point End Pass type
(mag) Time Alt. Az. Time Alt. Az. Time Alt. Az.
25 Feb -1.5 05:48:50 10° S 05:51:29 23° SE 05:54:10 10° ENE visible
26 Feb -0.7 04:58:20 10° SSE 04:59:27 11° SE 05:00:32 10° ESE visible
27 Feb -3.6 05:41:21 22° SW 05:43:17 68° SE 05:46:33 10° NE visible
28 Feb -1.8 04:51:50 27° ESE 04:51:50 27° ESE 04:54:02 10° ENE visible
28 Feb -2.4 06:24:52 10° W 06:27:35 24° NNW 06:30:19 10° NNE visible
01 Mar -3.4 05:34:47 40° WNW 05:35:11 42° NW 05:38:20 10° NE visible
02 Mar -1.4 04:44:53 21° NE 04:44:53 21° NE 04:46:09 10° NE visible
02 Mar -1.5 06:18:08 10° NW 06:19:45 13° NNW 06:21:22 10° N visible
03 Mar -2.0 05:27:32 20° NNW 05:27:32 20° NNW 05:29:43 10° NNE visible
04 Mar -0.8 04:37:24 12° NNE 04:37:24 12° NNE 04:37:46 10° NNE visible
05 Mar -1.2 05:19:50 11° NNW 05:19:50 11° NNW 05:20:27 10° N visible
